Regional Weather Roundup
Issued by NWS Albany, NY

Home | Current Version | Previous Version | Text Only | Print | Product List | Glossary On
Versions: 1 2 3 4 5 6 7 8 9 10 11 12 13 14 15 16 17 18 19 20 21 22 23 24 25 26 27 28
000
ASUS41 KALY 251110
RWRALY

NEW YORK STATE HOURLY WEATHER ROUNDUP
NATIONAL WEATHER SERVICE ALBANY NY
700 AM EDT TUE JUL 25 2017

NOTE: "FAIR" INDICATES FEW OR NO CLOUDS BELOW 12,000 FEET WITH NO
SIGNIFICANT WEATHER AND/OR NO OBSTRUCTIONS TO VISIBILITY.

NYZ032-033-038>043-046>054-057>066-NYZ062>081-082-084-251200-
EAST


CITY           SKY/WX    TMP DP  RH WIND       PRES   REMARKS
ALBANY         CLOUDY    58  54  86 CALM      30.05R
GLENS FALLS    LGT RAIN  57  54  89 CALM      30.05R FOG
POUGHKEEPSIE   CLOUDY    59  55  87 CALM      30.04R
NEWBURGH       CLOUDY    57  57 100 E6        30.05R FOG
MONTGOMERY     CLOUDY    59  57  93 E3        30.05R FOG
WHITE PLAINS   MOSUNNY   60  56  86 NE5       30.03R
ISLIP          CLOUDY    63  58  83 NE7       30.02R
NEW YORK CITY  PTSUNNY   64  59  83 E5        30.02R
CENTRAL PARK   CLOUDY    64  59  83 VRB3      30.05R
$$

NYZ005>009-017-018-044>046-055-056-251200-
CENTRAL


CITY           SKY/WX    TMP DP  RH WIND       PRES   REMARKS
FULTON         LGT RAIN  61  59  93 NW6       30.03R FOG
SYRACUSE       CLOUDY    60  60 100 W9        30.02R
ROME           CLOUDY    59  58  96 SE5       30.03R
ELMIRA         CLOUDY    64  59  83 W6        30.04R
BINGHAMTON     CLOUDY    59  58  96 NW9       30.04R
$$

NYZ026>034-041>043-087-251200-
NORTH


CITY           SKY/WX    TMP DP  RH WIND       PRES   REMARKS
WATERTOWN      LGT RAIN  58  58 100 N9        30.01R FOG
FORT DRUM      NOT AVBL
OGDENSBURG     CLOUDY    57  56  97 NE12      30.05R FOG
MASSENA        LGT RAIN  57  57 100 NE10      30.08R
SARANAC LAKE   RAIN      53  53 100 NE8       30.05R FOG
PLATTSBURGH    LGT RAIN  57  55  93 NE5       30.08R FOG
$$

NYZ001>004-010>016-019>021-085-251200-
WEST


CITY           SKY/WX    TMP DP  RH WIND       PRES   REMARKS
NIAGARA FALLS  MOCLDY    63  57  81 N5        30.11R
BUFFALO        CLOUDY    59  57  93 NW5       30.10S
DUNKIRK        CLOUDY    63  58  83 N12       30.11R
JAMESTOWN      CLOUDY    57  54  88 N7        30.12R
WELLSVILLE     CLOUDY    58  55  90 NW12      30.12R
ROCHESTER      DRIZZLE   60  59  96 N9        30.09R FOG
PENN YAN       LGT RAIN  60  56  86 NW9       30.06R FOG
$$

             KEY
       WCI = WIND CHILL INDEX
       VSB = VISIBILITY
       HX  = HEAT INDEX
$$




USA.gov is the U.S. government's official web portal to all federal, state and local government web resources and services.